Regional Weather Roundup
Issued by NWS New Orleans/Baton Rouge, LA

Home | Current Version | Previous Version | Text Only | Print | Product List | Glossary On
Versions: 1 2 3 4 5 6 7 8 9 10 11 12 13 14 15 16 17 18 19 20 21 22 23 24 25 26 27
000
ASUS44 KLIX 300311
RWRLIX
NEW ORLEANS REGIONAL WEATHER ROUNDUP
NATIONAL WEATHER SERVICE NEW ORLEANS LA
1000 PM CDT SUN MAY 29 2016

NOTE: "FAIR" INDICATES FEW OR NO CLOUDS BELOW 12,000 FEET WITH NO
      SIGNIFICANT WEATHER AND/OR OBSTRUCTIONS TO VISIBILITY.
      SKY/WX - SKY CONDITION AND SIGNIFICANT WEATHER.
      TMP - AIR TEMPERATURE.     DP    - DEWPOINT TEMPERATURE.
      RH  - RELATIVE HUMIDITY.   PRES  - PRESSURE.
      HI  - HEAT INDEX.          WCI   - WIND CHILL INDEX.

*  THESE STATIONS ARE NOT NWS OR FAA STATIONS AND ARE NOT UNDER
   NWS QUALITY CONTROL.

LAZ038-040-048-061>063-065>067-069-300400-
SOUTHEAST LOUISIANA

CITY           SKY/WX    TMP DP  RH WIND       PRES   REMARKS
N.O. AUDUBON     N/A     78  72  81 MISG        N/A
N.O. INTL ARPT MOCLDY    79  71  76 S7        30.04R
N.O. LAKEFRONT MOCLDY    81  70  69 S7        30.05R
N.O. DOWNTOWN*   N/A     83  72  69 S6        30.05R
RESERVE*         N/A     80  72  76 S6        30.05R
SLIDELL        CLOUDY    75  71  87 CALM      30.03R
BATON ROUGE    CLOUDY    77  70  79 CALM      30.04R
BOOTHVILLE     MOCLDY    77  71  82 S5        30.05R
BELLE CHASSE   PTCLDY    75  72  90 SW5       30.05R
BOGALUSA*        N/A     76  71  84 CALM      30.05R
GALLIANO*        N/A     71  68  91 CALM      30.05R FOG
NEW ROADS*       N/A     76  73  90 CALM      30.05R
GONZALES*        N/A     74  70  86 CALM      30.04R
HAMMOND*       CLOUDY    77  68  73 CALM      30.04R
HOUMA*         PTCLDY    75  72  90 CALM      30.05R
PORT FOURCHON* CLEAR     81  70  69 S6        30.05R

$$

MSZ070-080>082-300400-
SOUTHERN MISSISSIPPI

CITY           SKY/WX    TMP DP  RH WIND       PRES   REMARKS
MCCOMB         CLOUDY    75  67  76 CALM      30.06R
GULFPORT       CLEAR     77  70  79 CALM      30.03R
BILOXI         NOT AVBL
PASCAGOULA     CLEAR     71  69  93 CALM      30.04R

$$

COASTAL OBSERVATIONS
LAKE AND NEARSHORE STATIONS

STATION/POSITION TIME  TEMP    WIND        PRES    WAVE
                       AIR SEA DIR/SP/G            HT/PER
                 (UTC) (F)     (DEG/KT/KT) (MB)    (FT/S)
PASCAGOULA       0200   81                   N/A
WAVELAND YACHT   0200   81 81                N/A
GRAND ISLE       0200   80 83                N/A
SOUTHWEST PASS   0200          170/  6/  7   N/A
NEW CANAL        0200   82 82                N/A
SHELL BEACH      0200   80 84                N/A

OFFSHORE STATIONS

STATION/POSITION TIME  TEMP    WIND        PRES    WAVE
                       AIR SEA DIR/SP/G            HT/PER
                 (UTC) (F)     (DEG/KT/KT) (MB)    (FT/S)
64 S DAUPHIN ISL 0200   79 80  220/  4/  6 1017.0

$$





USA.gov is the U.S. government's official web portal to all federal, state and local government web resources and services.